Weather History for Oscoda, MI

Change the Weather History Date:

Saturday, November 24, 2012

  Actual Average Record
Temperature  
Mean Temperature 28 °F -  
Max Temperature 32 °F 41 °F 55 °F (2003)
Min Temperature 25 °F 28 °F 10 °F (2005)
Degree Days  
Heating Degree Days 36    
Moisture  
Dew Point 18 °F    
Average Humidity 64    
Maximum Humidity 78    
Minimum Humidity 50    
Precipitation  
Precipitation 0.00 in - - ()
Sea Level Pressure  
Sea Level Pressure 29.98 in    
Wind  
Wind Speed 11 mph (WNW)    
Max Wind Speed 18 mph    
Max Gust Speed 28 mph    
Visibility 10 miles    
Events Snow    
Averages and records for this station are not official NWS values.
T = Trace of Precipitation, MM = Missing Value Source: NWS Daily Summary

Daily Weather History Graph

Daily Weather History Graph

Search for Another Location

Airport:

Trip Planner

Search our weather history database for the weather conditions in past years. The results will help you decide how hot, cold, wet, or windy it might be!

Date:

Astronomy

Nov. 24, 2012 Rise Set
Actual Time 7:42 AM EST 4:58 PM EST
Civil Twilight 7:09 AM EST 5:30 PM EST
Nautical Twilight 6:33 AM EST 6:06 PM EST
Astronomical Twilight 5:59 AM EST 6:41 PM EST
Moon 2:48 PM EST (11/24) 3:51 AM EST (11/24)
Length of Visible Light 10h 20m
Length of Day
9h 16m
Waxing Gibbous, 87% of the Moon is Illuminated
Nov 24
Waxing Gibbous
Nov 28
Full
Dec 6
Last Quarter
Dec 13
New
Dec 20
First Quarter

Hourly Weather History & Observations

Time (EST) Temp. Windchill Dew Point Humidity Pressure Visibility Wind Dir Wind Speed Gust Speed Precip Events Conditions
12:14 AM 30.9 °F 21.7 °F 21.2 °F 67% 29.87 in 10.0 mi NW 11.5 mph 24.2 mph N/A   Overcast
12:33 AM 31.1 °F 22.4 °F 20.7 °F 65% 29.88 in 10.0 mi NW 10.4 mph 21.9 mph N/A   Overcast
12:54 AM 30.7 °F 20.4 °F 22.8 °F 72% 29.88 in 10.0 mi NW 13.8 mph 20.7 mph N/A Snow Light Snow
1:14 AM 29.8 °F 20.9 °F 23.2 °F 76% 29.88 in 10.0 mi NW 10.4 mph 17.3 mph N/A   Overcast
1:33 AM 30.2 °F 19.3 °F 22.5 °F 73% 29.88 in 10.0 mi WNW 15.0 mph 24.2 mph N/A   Mostly Cloudy
1:54 AM 30.2 °F 20.8 °F 22.5 °F 73% 29.89 in 10.0 mi NW 11.5 mph 17.3 mph N/A   Mostly Cloudy
2:14 AM 30.2 °F 20.2 °F 21.2 °F 69% 29.89 in 10.0 mi NW 12.7 mph 26.5 mph N/A   Scattered Clouds
2:33 AM 29.7 °F 20.7 °F 21.4 °F 71% 29.90 in 10.0 mi WNW 10.4 mph 21.9 mph N/A   Clear
2:54 AM 29.3 °F 19.6 °F 20.3 °F 69% 29.91 in 10.0 mi NW 11.5 mph 19.6 mph N/A   Clear
3:14 AM 29.1 °F 18.9 °F 19.4 °F 67% 29.91 in 10.0 mi WNW 12.7 mph 20.7 mph N/A   Clear
3:33 AM 28.8 °F 17.9 °F 19.2 °F 68% 29.91 in 10.0 mi WNW 13.8 mph 23.0 mph N/A   Clear
3:54 AM 28.4 °F 18.5 °F 19.2 °F 69% 29.92 in 10.0 mi NW 11.5 mph 19.6 mph N/A   Clear
4:14 AM 28.4 °F 17.5 °F 19.2 °F 69% 29.93 in 10.0 mi NW 13.8 mph 23.0 mph N/A   Clear
4:33 AM 28.2 °F 17.2 °F 19.0 °F 68% 29.93 in 10.0 mi NW 13.8 mph 20.7 mph N/A   Clear
4:54 AM 28.0 °F 17.0 °F 18.5 °F 67% 29.93 in 10.0 mi NW 13.8 mph 20.7 mph N/A   Clear
5:14 AM 28.2 °F 17.7 °F 18.3 °F 66% 29.93 in 10.0 mi NW 12.7 mph 19.6 mph N/A   Clear
5:33 AM 28.0 °F 17.5 °F 18.3 °F 67% 29.94 in 10.0 mi NW 12.7 mph 20.7 mph N/A   Clear
5:54 AM 27.5 °F 15.9 °F 18.1 °F 68% 29.95 in 10.0 mi NW 15.0 mph 19.6 mph N/A   Clear
6:14 AM 27.3 °F 16.6 °F 18.1 °F 68% 29.95 in 10.0 mi NW 12.7 mph 20.7 mph N/A   Clear
6:33 AM 27.1 °F 18.2 °F 18.5 °F 70% 29.96 in 10.0 mi WNW 9.2 mph 17.3 mph N/A   Clear
6:54 AM 26.6 °F 16.8 °F 18.3 °F 71% 29.97 in 10.0 mi NW 10.4 mph 19.6 mph N/A   Clear
7:14 AM 26.4 °F 18.0 °F 19.0 °F 74% 29.97 in 10.0 mi West 8.1 mph 16.1 mph N/A   Clear
7:33 AM 25.5 °F 16.9 °F 19.4 °F 78% 29.98 in 10.0 mi West 8.1 mph - N/A   Clear
7:54 AM 26.6 °F 16.8 °F 20.3 °F 77% 29.99 in 10.0 mi WNW 10.4 mph 18.4 mph N/A   Scattered Clouds
8:14 AM 28.0 °F 15.3 °F 19.9 °F 72% 29.99 in 7.0 mi NW 18.4 mph - N/A Snow Light Snow
8:34 AM 28.0 °F 20.0 °F 19.9 °F 72% 30.01 in 10.0 mi NW 8.1 mph - N/A   Overcast
8:54 AM 28.2 °F 17.7 °F 19.8 °F 71% 30.01 in 10.0 mi NW 12.7 mph 21.9 mph N/A   Overcast
9:14 AM 28.4 °F 19.1 °F 18.5 °F 66% 30.01 in 10.0 mi NW 10.4 mph 18.4 mph N/A   Overcast
9:34 AM 28.4 °F 16.6 °F 19.4 °F 69% 30.02 in 10.0 mi NW 16.1 mph - N/A   Overcast
9:54 AM 28.4 °F 17.5 °F 17.6 °F 64% 30.02 in 10.0 mi NW 13.8 mph 21.9 mph N/A   Overcast
10:14 AM 28.9 °F 18.6 °F 17.6 °F 63% 30.02 in 10.0 mi NNW 12.7 mph 21.9 mph N/A   Overcast
10:34 AM 29.1 °F 18.4 °F 17.8 °F 63% 30.03 in 10.0 mi NW 13.8 mph 21.9 mph N/A   Overcast
10:54 AM 29.3 °F 17.0 °F 17.2 °F 61% 30.03 in 10.0 mi NW 18.4 mph 27.6 mph N/A   Overcast
11:14 AM 29.3 °F 17.0 °F 17.1 °F 60% 30.03 in 10.0 mi NW 18.4 mph 26.5 mph N/A   Overcast
11:34 AM 29.3 °F 18.6 °F 17.4 °F 61% 30.03 in 10.0 mi WNW 13.8 mph 19.6 mph N/A   Overcast
11:54 AM 29.5 °F 18.0 °F 17.1 °F 60% 30.02 in 10.0 mi NNW 16.1 mph 23.0 mph N/A   Overcast
12:14 PM 29.8 °F 17.7 °F 16.7 °F 58% 30.02 in 10.0 mi NW 18.4 mph 24.2 mph N/A   Overcast
12:34 PM 30.2 °F 18.5 °F 16.0 °F 56% 30.02 in 10.0 mi NW 17.3 mph 24.2 mph N/A   Mostly Cloudy
12:54 PM 31.3 °F 22.1 °F 17.2 °F 56% 30.01 in 10.0 mi NW 11.5 mph 19.6 mph N/A   Overcast
1:13 PM 30.9 °F 20.7 °F 16.7 °F 56% 30.01 in 10.0 mi NW 13.8 mph 20.7 mph N/A   Overcast
1:34 PM 32.0 °F 23.0 °F 16.9 °F 54% 30.00 in 10.0 mi NW 11.5 mph 20.7 mph N/A   Overcast
1:54 PM 32.0 °F 21.2 °F 16.7 °F 53% 30.00 in 10.0 mi NW 16.1 mph 21.9 mph N/A   Mostly Cloudy
2:13 PM 31.3 °F 21.6 °F 15.8 °F 53% 30.00 in 10.0 mi NW 12.7 mph - N/A   Mostly Cloudy
2:34 PM 32.2 °F 21.8 °F 16.0 °F 51% 30.00 in 10.0 mi NW 15.0 mph 19.6 mph N/A   Scattered Clouds
2:54 PM 32.0 °F 22.5 °F 15.3 °F 50% 30.00 in 10.0 mi NW 12.7 mph 20.7 mph N/A   Scattered Clouds
3:13 PM 32.0 °F 21.6 °F 15.6 °F 51% 30.00 in 10.0 mi West 15.0 mph 24.2 mph N/A   Mostly Cloudy
3:34 PM 31.1 °F 22.4 °F 16.0 °F 54% 30.01 in 10.0 mi WNW 10.4 mph 19.6 mph N/A   Mostly Cloudy
3:54 PM 30.4 °F 20.5 °F 15.6 °F 54% 30.01 in 10.0 mi NW 12.7 mph - N/A   Overcast
4:13 PM 29.8 °F 20.9 °F 15.8 °F 56% 30.01 in 10.0 mi NW 10.4 mph - N/A   Overcast
4:34 PM 29.3 °F 20.8 °F 15.8 °F 57% 30.01 in 10.0 mi NW 9.2 mph - N/A   Overcast
4:54 PM 29.1 °F 19.4 °F 15.6 °F 57% 30.01 in 10.0 mi WNW 11.5 mph 16.1 mph N/A   Overcast
5:14 PM 28.8 °F 20.9 °F 15.6 °F 58% 30.01 in 10.0 mi NW 8.1 mph - N/A   Mostly Cloudy
5:34 PM 28.8 °F 20.2 °F 15.6 °F 58% 30.01 in 10.0 mi NW 9.2 mph - N/A   Overcast
5:54 PM 28.6 °F 23.5 °F 15.8 °F 59% 30.02 in 10.0 mi WNW 4.6 mph - N/A   Overcast
6:14 PM 28.6 °F 21.5 °F 15.8 °F 59% 30.02 in 10.0 mi WNW 6.9 mph - N/A   Overcast
6:34 PM 28.9 °F 23.9 °F 16.3 °F 59% 30.02 in 10.0 mi West 4.6 mph - N/A   Overcast
6:54 PM 29.3 °F 21.5 °F 17.6 °F 62% 30.01 in 10.0 mi WNW 8.1 mph - N/A   Overcast
7:14 PM 29.1 °F 19.4 °F 16.2 °F 58% 30.01 in 10.0 mi West 11.5 mph - N/A   Overcast
7:34 PM 28.4 °F 19.1 °F 15.8 °F 59% 30.01 in 10.0 mi WNW 10.4 mph - N/A   Overcast
7:54 PM 28.0 °F 20.0 °F 15.8 °F 60% 30.01 in 10.0 mi WNW 8.1 mph - N/A   Overcast
8:14 PM 28.4 °F 24.6 °F 16.3 °F 61% 30.00 in 10.0 mi WNW 3.5 mph - N/A   Overcast
8:34 PM 28.4 °F 24.6 °F 16.7 °F 62% 30.00 in 10.0 mi West 3.5 mph - N/A   Overcast
8:54 PM 28.0 °F - 17.2 °F 64% 29.99 in 10.0 mi Calm Calm - N/A   Overcast
9:14 PM 28.0 °F 24.2 °F 17.4 °F 64% 29.98 in 10.0 mi WSW 3.5 mph - N/A   Overcast
9:34 PM 28.4 °F 23.3 °F 18.7 °F 67% 29.98 in 10.0 mi SW 4.6 mph - N/A   Overcast
9:54 PM 28.4 °F 24.6 °F 18.7 °F 67% 29.98 in 10.0 mi SW 3.5 mph - N/A   Overcast
10:14 PM 28.6 °F 24.8 °F 19.6 °F 69% 29.97 in 10.0 mi WSW 3.5 mph - N/A   Overcast
10:34 PM 29.1 °F 23.0 °F 20.1 °F 69% 29.97 in 10.0 mi SW 5.8 mph - N/A   Overcast
10:54 PM 29.1 °F 23.0 °F 20.1 °F 69% 29.96 in 10.0 mi SW 5.8 mph - N/A   Overcast
11:14 PM 29.3 °F 23.2 °F 20.1 °F 69% 29.95 in 10.0 mi SSW 5.8 mph - N/A   Overcast
11:34 PM 29.3 °F 22.3 °F 20.3 °F 69% 29.95 in 10.0 mi SW 6.9 mph - N/A   Overcast
11:54 PM 29.3 °F 22.3 °F 20.3 °F 69% 29.95 in 10.0 mi SW 6.9 mph - N/A   Overcast